FW9258 Weather Reports


time (UTC)temp
C
wind
direction
speed
KPH
gust
KPH
rain 1hr
cm
rain 24hr
cm
rain mn
cm
humidity
%
barometer
mb
20260508025519 9 339 0.0 8.0 0.00 0.00 0.00 84 1015.1
20260508025017 9 0 0.0 14.5 0.00 0.00 0.00 84 1015.1
20260508024536 9 307 6.4 14.5 0.00 0.00 0.00 84 1015.2
20260508024016 9 301 4.8 11.3 0.00 0.00 0.00 85 1015.3
20260508023519 9 30 1.6 9.7 0.00 0.00 0.00 85 1015.3
20260508023036 9 356 3.2 9.7 0.00 0.00 0.00 85 1015.3
20260508022515 9 283 1.6 8.0 0.00 0.00 0.00 84 1015.3
20260508022016 9 305 1.6 8.0 0.00 0.00 0.00 83 1015.2
20260508021534 10 333 1.6 11.3 0.00 0.00 0.00 83 1015.3
20260508021016 9 111 3.2 11.3 0.00 0.00 0.00 82 1015.2
20260508020515 9 284 1.6 6.4 0.00 0.00 0.00 82 1015.2
20260508020037 9 307 0.0 4.8 0.00 0.00 0.00 82 1015.2
20260508015515 9 306 0.0 4.8 0.00 0.00 0.00 82 1015.2
20260508015015 9 0 0.0 8.0 0.00 0.00 0.00 83 1015.2
20260508014534 9 288 3.2 8.0 0.00 0.00 0.00 83 1015.3
20260508014017 9 318 1.6 6.4 0.00 0.00 0.00 83 1015.4
20260508013518 9 317 0.0 3.2 0.00 0.00 0.00 84 1015.4
20260508013037 9 321 0.0 3.2 0.00 0.00 0.00 84 1015.4
20260508012516 9 0 0.0 3.2 0.00 0.00 0.00 85 1015.3
20260508012019 9 0 0.0 3.2 0.00 0.00 0.00 85 1015.3
20260508011536 9 334 0.0 1.6 0.00 0.00 0.00 86 1015.4
20260508011015 10 0 0.0 3.2 0.00 0.00 0.00 87 1015.4
20260508010515 10 314 0.0 3.2 0.00 0.00 0.00 88 1015.4
20260508010034 10 316 0.0 6.4 0.00 0.00 0.00 88 1015.5
20260508005515 10 326 1.6 6.4 0.00 0.00 0.00 89 1015.5
20260508005016 10 56 0.0 3.2 0.00 0.00 0.00 88 1015.5
20260508004537 10 316 0.0 3.2 0.00 0.00 0.00 88 1015.5
20260508004018 10 0 0.0 3.2 0.00 0.00 0.00 88 1015.5
20260508003517 10 0 0.0 3.2 0.00 0.00 0.00 88 1015.5
20260508003033 10 0 0.0 1.6 0.00 0.00 0.00 88 1015.6
20260508002515 10 335 0.0 1.6 0.00 0.00 0.00 88 1015.6
20260508002015 10 0 0.0 1.6 0.00 0.00 0.00 88 1015.5
20260508001536 10 0 0.0 1.6 0.00 0.00 0.00 88 1015.6
20260508001019 10 0 0.0 1.6 0.00 0.00 0.00 88 1015.7
20260508000519 10 0 0.0 1.6 0.00 0.00 0.00 88 1015.6
20260508000034 10 0 0.0 1.6 0.00 0.00 0.00 87 1015.7
20260507235522 10 324 0.0 1.6 0.00 0.00 0.00 87 1015.7
20260507235015 10 332 0.0 1.6 0.00 0.00 0.00 87 1015.7
20260507234539 10 0 0.0 1.6 0.00 0.00 0.00 87 1015.7
20260507234015 10 319 0.0 4.8 0.00 0.00 0.00 87 1015.8
20260507233515 10 0 0.0 4.8 0.00 0.00 0.00 87 1015.7
20260507233033 10 332 1.6 4.8 0.00 0.00 0.00 87 1015.7
20260507232515 10 345 1.6 4.8 0.00 0.00 0.00 87 1015.8
20260507232015 10 326 1.6 4.8 0.00 0.00 0.00 87 1015.8
20260507231543 10 328 0.0 3.2 0.00 0.00 0.00 87 1015.9
20260507231024 10 0 0.0 1.6 0.00 0.00 0.00 87 1015.9
20260507230516 10 326 0.0 1.6 0.00 0.00 0.00 87 1015.9
20260507230034 10 0 0.0 1.6 0.00 0.00 0.00 87 1016.0
20260507225517 10 0 0.0 1.6 0.00 0.00 0.00 87 1016.0
20260507225017 10 0 0.0 1.6 0.00 0.00 0.00 87 1016.0
20260507224535 10 0 0.0 1.6 0.00 0.00 0.00 87 1015.9
20260507224015 10 0 0.0 1.6 0.00 0.00 0.00 87 1016.0
20260507223518 10 314 0.0 1.6 0.00 0.00 0.00 87 1015.9
20260507223032 10 324 0.0 1.6 0.00 0.00 0.00 87 1015.8
20260507222515 10 0 0.0 1.6 0.00 0.00 0.00 87 1015.8
20260507222017 9 0 0.0 1.6 0.00 0.00 0.00 87 1015.9
20260507221534 9 329 0.0 1.6 0.00 0.00 0.00 87 1015.9
20260507221015 9 0 0.0 1.6 0.00 0.00 0.00 87 1015.8
20260507220515 9 0 0.0 1.6 0.00 0.00 0.00 87 1015.8
20260507220037 9 0 0.0 1.6 0.00 0.00 0.00 87 1015.7
20260507215520 9 0 0.0 1.6 0.00 0.00 0.00 87 1015.8
20260507215017 9 0 0.0 0.0 0.00 0.00 0.00 87 1015.8
20260507214534 9 0 0.0 1.6 0.00 0.00 0.00 86 1015.9
20260507214023 9 0 0.0 1.6 0.00 0.00 0.00 86 1015.9
20260507213516 9 0 0.0 1.6 0.00 0.00 0.00 86 1016.0
20260507213042 10 0 0.0 1.6 0.00 0.00 0.00 87 1015.9
20260507212520 10 0 0.0 0.0 0.00 0.00 0.00 86 1016.0
20260507212017 10 0 0.0 0.0 0.00 0.00 0.00 86 1015.9
20260507211536 10 0 0.0 1.6 0.00 0.00 0.00 86 1015.8
20260507211018 10 0 0.0 1.6 0.00 0.00 0.00 85 1015.7
20260507210521 10 0 0.0 1.6 0.00 0.00 0.00 85 1015.7
20260507210034 10 0 0.0 1.6 0.00 0.00 0.00 84 1015.7
20260507205515 10 0 0.0 1.6 0.00 0.00 0.00 84 1015.7
20260507205016 10 0 0.0 1.6 0.00 0.00 0.00 83 1015.7
20260507204534 10 322 0.0 1.6 0.00 0.00 0.00 83 1015.6
20260507204015 10 0 0.0 0.0 0.00 0.00 0.00 82 1015.6
20260507203525 10 0 0.0 0.0 0.00 0.00 0.00 82 1015.6
20260507203038 10 0 0.0 0.0 0.00 0.00 0.00 81 1015.6
20260507202518 10 0 0.0 1.6 0.00 0.00 0.00 81 1015.6
20260507202016 10 0 0.0 1.6 0.00 0.00 0.00 81 1015.5
20260507201533 10 0 0.0 0.0 0.00 0.00 0.00 81 1015.5
20260507201019 10 0 0.0 0.0 0.00 0.00 0.00 80 1015.4
20260507200516 10 0 0.0 3.2 0.00 0.00 0.00 80 1015.4
20260507200034 10 0 0.0 4.8 0.00 0.00 0.00 79 1015.3
20260507195515 10 335 1.6 4.8 0.00 0.00 0.00 80 1015.2
20260507195015 10 333 0.0 3.2 0.00 0.00 0.00 80 1015.2
20260507194534 10 336 1.6 4.8 0.00 0.00 0.00 80 1015.1
20260507194015 10 333 1.6 4.8 0.00 0.00 0.00 80 1015.2
20260507193520 10 333 1.6 3.2 0.00 0.00 0.00 80 1015.3
20260507193032 10 334 1.6 3.2 0.00 0.00 0.00 82 1015.2
20260507192515 10 333 1.6 3.2 0.00 0.00 0.00 82 1015.1
20260507192016 10 334 0.0 3.2 0.00 0.00 0.00 82 1015.1
20260507191532 10 0 0.0 4.8 0.00 0.00 0.00 82 1015.1
20260507191015 10 334 1.6 4.8 0.00 0.00 0.00 81 1015.2
20260507190516 11 0 0.0 1.6 0.00 0.00 0.00 81 1015.1
20260507190034 11 0 0.0 1.6 0.00 0.00 0.00 81 1015.2
20260507185515 11 0 0.0 0.0 0.00 0.00 0.00 80 1015.1
20260507185015 11 0 0.0 0.0 0.00 0.00 0.00 80 1015.2
20260507184532 11 0 0.0 0.0 0.00 0.00 0.00 80 1015.2
20260507184016 11 0 0.0 0.0 0.00 0.00 0.00 80 1015.1
20260507183515 11 0 0.0 0.0 0.00 0.00 0.00 79 1015.2
20260507183034 11 0 0.0 0.0 0.00 0.00 0.00 79 1015.2
20260507182515 12 0 0.0 0.0 0.00 0.00 0.00 78 1015.2
20260507182016 12 0 0.0 1.6 0.00 0.00 0.00 77 1015.2
20260507181534 12 0 0.0 1.6 0.00 0.00 0.00 76 1015.2
20260507181016 12 0 0.0 1.6 0.00 0.00 0.00 76 1015.2
20260507180516 12 0 0.0 1.6 0.00 0.00 0.00 76 1015.2
20260507180031 12 0 0.0 1.6 0.00 0.00 0.00 75 1015.3
20260507175516 12 0 0.0 1.6 0.00 0.00 0.00 74 1015.2
20260507175016 12 0 0.0 1.6 0.00 0.00 0.00 76 1015.2
20260507174530 12 0 0.0 1.6 0.00 0.00 0.00 75 1015.2
20260507174016 12 331 0.0 1.6 0.00 0.00 0.00 74 1015.3
20260507173515 12 0 0.0 1.6 0.00 0.00 0.00 75 1015.3
20260507173040 12 0 0.0 1.6 0.00 0.00 0.00 75 1015.3
20260507172516 12 325 0.0 3.2 0.00 0.00 0.00 76 1015.3
20260507172021 12 0 0.0 3.2 0.00 0.00 0.00 74 1015.3
20260507171530 12 320 0.0 3.2 0.00 0.00 0.00 78 1015.3
20260507171015 12 311 1.6 6.4 0.00 0.00 0.00 77 1015.3
20260507170515 12 314 1.6 11.3 0.00 0.00 0.00 77 1015.3
20260507170034 12 275 1.6 11.3 0.00 0.00 0.00 78 1015.3
20260507165515 12 307 1.6 11.3 0.00 0.00 0.00 79 1015.4
20260507165016 12 312 4.8 11.3 0.00 0.00 0.00 78 1015.4
20260507164532 13 300 6.4 11.3 0.00 0.00 0.00 78 1015.4
20260507164015 13 352 3.2 11.3 0.00 0.00 0.00 78 1015.4
20260507163516 13 336 3.2 8.0 0.00 0.00 0.00 78 1015.4
20260507163035 12 134 4.8 9.7 0.00 0.00 0.00 79 1015.4
20260507162517 12 309 4.8 9.7 0.00 0.00 0.00 78 1015.3
20260507162016 13 304 1.6 9.7 0.00 0.00 0.00 78 1015.4
20260507161535 13 323 4.8 9.7 0.00 0.00 0.00 76 1015.3
20260507161015 14 296 1.6 8.0 0.00 0.00 0.00 77 1015.2
20260507160517 14 297 3.2 8.0 0.00 0.00 0.00 77 1015.3
20260507160035 14 283 1.6 6.4 0.00 0.00 0.00 76 1015.3
20260507155516 13 305 3.2 6.4 0.00 0.00 0.00 75 1015.3
20260507155019 14 314 3.2 9.7 0.00 0.00 0.00 76 1015.3
20260507154535 13 302 1.6 11.3 0.00 0.00 0.00 78 1015.3
20260507154015 13 300 3.2 11.3 0.00 0.00 0.00 77 1015.3
20260507153520 13 276 1.6 11.3 0.00 0.00 0.00 80 1015.4
20260507153035 13 303 4.8 9.7 0.00 0.00 0.00 79 1015.3
20260507152515 13 281 6.4 12.9 0.00 0.00 0.00 77 1015.3
20260507152016 13 283 4.8 12.9 0.00 0.00 0.00 78 1015.3
20260507151537 13 265 6.4 11.3 0.00 0.00 0.00 77 1015.2
20260507151016 13 276 3.2 12.9 0.00 0.00 0.00 75 1015.2
20260507150521 13 287 4.8 12.9 0.00 0.00 0.00 72 1015.3
20260507150035 13 290 4.8 12.9 0.00 0.00 0.00 72 1015.3
20260507145519 13 293 4.8 12.9 0.00 0.00 0.00 75 1015.3
20260507145015 13 290 4.8 12.9 0.00 0.00 0.00 75 1015.3
20260507144549 13 257 4.8 12.9 0.00 0.00 0.00 74 1015.2
20260507144015 14 306 1.6 9.7 0.00 0.00 0.00 73 1015.3
20260507143518 14 16 4.8 9.7 0.00 0.00 0.00 75 1015.3
20260507143032 13 300 1.6 12.9 0.00 0.00 0.00 76 1015.3
20260507142516 13 0 1.6 12.9 0.00 0.00 0.00 76 1015.4
20260507142024 13 298 6.4 11.3 0.00 0.00 0.00 73 1015.4
20260507141535 13 269 6.4 11.3 0.00 0.00 0.00 72 1015.4
20260507141015 13 314 4.8 11.3 0.00 0.00 0.00 74 1015.5
20260507140515 13 289 6.4 11.3 0.00 0.00 0.00 75 1015.6
20260507140037 13 295 1.6 8.0 0.00 0.00 0.00 76 1015.7
20260507135517 13 300 3.2 9.7 0.00 0.00 0.00 74 1015.7
20260507135018 13 305 4.8 9.7 0.00 0.00 0.00 74 1015.8
20260507134537 14 300 4.8 9.7 0.00 0.00 0.00 75 1015.7
20260507134018 14 276 3.2 12.9 0.00 0.00 0.00 77 1015.7
20260507133517 13 283 3.2 12.9 0.00 0.00 0.00 75 1015.7
20260507133036 13 281 3.2 11.3 0.00 0.00 0.00 77 1015.7
20260507132518 13 293 4.8 12.9 0.00 0.00 0.00 75 1015.6
20260507132016 13 297 6.4 12.9 0.00 0.00 0.00 78 1015.7
20260507131534 13 275 3.2 11.3 0.00 0.00 0.00 76 1015.6
20260507131017 13 284 3.2 11.3 0.00 0.00 0.00 75 1015.6
20260507130515 13 309 3.2 12.9 0.00 0.00 0.00 77 1015.6
20260507130035 13 248 4.8 14.5 0.00 0.00 0.00 77 1015.6
20260507125516 13 236 4.8 14.5 0.00 0.00 0.00 78 1015.6
20260507125017 12 299 6.4 14.5 0.00 0.00 0.00 81 1015.6
20260507124531 13 313 4.8 14.5 0.00 0.00 0.00 81 1015.5
20260507124018 12 299 6.4 14.5 0.00 0.00 0.00 81 1015.7
20260507123515 12 257 8.0 14.5 0.00 0.00 0.00 81 1015.7
20260507123036 13 280 9.7 16.1 0.00 0.00 0.00 80 1015.7
20260507122518 13 284 8.0 16.1 0.00 0.00 0.00 80 1015.6
20260507122016 13 302 9.7 14.5 0.00 0.00 0.00 79 1015.6
20260507121535 14 281 4.8 12.9 0.00 0.00 0.00 78 1015.6
20260507121018 14 264 3.2 11.3 0.00 0.00 0.00 78 1015.7
20260507120515 14 284 4.8 12.9 0.00 0.00 0.00 78 1015.7
20260507120035 13 305 3.2 12.9 0.00 0.00 0.00 79 1015.7
20260507115519 13 153 4.8 14.5 0.00 0.00 0.00 78 1015.7
20260507115016 13 301 6.4 14.5 0.00 0.00 0.00 78 1015.8
20260507114535 13 295 6.4 12.9 0.00 0.00 0.00 78 1015.7
20260507114015 13 291 4.8 12.9 0.00 0.00 0.00 77 1015.8
20260507113516 13 269 4.8 11.3 0.00 0.00 0.00 79 1015.8
20260507113033 13 323 3.2 11.3 0.00 0.00 0.00 78 1015.8
20260507112518 13 300 3.2 12.9 0.00 0.00 0.00 79 1015.7
20260507112017 13 240 3.2 12.9 0.00 0.00 0.00 80 1015.7
20260507111543 13 314 6.4 14.5 0.00 0.00 0.00 78 1015.7
20260507111018 13 147 6.4 14.5 0.00 0.00 0.00 78 1015.8
20260507110518 13 320 4.8 14.5 0.00 0.00 0.00 77 1015.9
20260507110030 13 306 4.8 16.1 0.00 0.00 0.00 79 1015.8
20260507105514 13 323 3.2 16.1 0.00 0.00 0.00 79 1015.7
20260507105017 13 304 4.8 11.3 0.00 0.00 0.00 78 1015.8
20260507104536 13 287 4.8 11.3 0.00 0.00 0.00 78 1015.9
20260507104019 13 24 4.8 14.5 0.00 0.00 0.00 79 1015.9
20260507103518 12 278 8.0 14.5 0.00 0.00 0.00 78 1015.9
20260507103039 13 331 4.8 12.9 0.00 0.00 0.00 80 1015.9
20260507102517 12 283 6.4 12.9 0.00 0.00 0.00 79 1015.9
20260507102016 12 61 6.4 12.9 0.00 0.00 0.00 78 1015.8
20260507101544 12 181 3.2 12.9 0.00 0.00 0.00 80 1015.8
20260507101016 12 288 4.8 12.9 0.00 0.00 0.00 79 1015.8
20260507100516 13 94 3.2 16.1 0.00 0.00 0.00 78 1015.8
20260507100040 12 338 6.4 16.1 0.00 0.00 0.00 79 1015.7
20260507095518 12 286 8.0 19.3 0.00 0.00 0.00 79 1015.7
20260507095014 12 346 6.4 19.3 0.00 0.00 0.00 79 1015.7
20260507094540 12 217 9.7 16.1 0.00 0.00 0.00 80 1015.7
20260507094015 12 122 8.0 16.1 0.00 0.00 0.00 80 1015.7
20260507093515 12 25 6.4 17.7 0.00 0.00 0.00 80 1015.6
20260507093042 12 125 8.0 17.7 0.00 0.00 0.00 80 1015.6
20260507092518 12 205 8.0 17.7 0.00 0.00 0.00 80 1015.6
20260507092018 12 146 9.7 17.7 0.00 0.00 0.00 79 1015.6
20260507091539 12 342 9.7 17.7 0.00 0.00 0.00 81 1015.6
20260507091018 12 153 9.7 17.7 0.00 0.00 0.00 80 1015.7
20260507090518 12 188 6.4 14.5 0.00 0.00 0.00 80 1015.6
20260507090037 11 301 8.0 16.1 0.00 0.00 0.00 80 1015.6
20260507085515 11 308 8.0 19.3 0.00 0.00 0.00 79 1015.5
20260507085017 11 122 9.7 19.3 0.00 0.00 0.00 79 1015.5
20260507084537 11 72 6.4 14.5 0.00 0.00 0.00 78 1015.5
20260507084018 12 166 8.0 17.7 0.00 0.00 0.00 78 1015.5
20260507083517 12 96 9.7 17.7 0.00 0.00 0.00 78 1015.5
20260507083032 12 330 6.4 16.1 0.00 0.00 0.00 78 1015.5
20260507082517 12 170 8.0 16.1 0.00 0.00 0.00 79 1015.5
20260507082015 11 35 8.0 14.5 0.00 0.00 0.00 78 1015.4
20260507081536 11 113 6.4 14.5 0.00 0.00 0.00 81 1015.4
20260507081018 11 184 6.4 14.5 0.00 0.00 0.00 80 1015.5
20260507080515 11 63 8.0 16.1 0.00 0.00 0.00 80 1015.5
20260507080043 11 101 8.0 16.1 0.00 0.00 0.00 81 1015.4
20260507075518 11 101 8.0 19.3 0.00 0.00 0.00 83 1015.3
20260507075022 11 76 9.7 19.3 0.00 0.00 0.00 82 1015.3
20260507074534 11 78 11.3 19.3 0.00 0.00 0.00 83 1015.4
20260507074016 11 94 11.3 17.7 0.00 0.00 0.00 84 1015.3
20260507073515 10 102 11.3 20.9 0.00 0.00 0.00 84 1015.2
20260507073036 10 105 11.3 20.9 0.00 0.00 0.00 84 1015.4
20260507072515 10 131 9.7 20.9 0.00 0.00 0.00 84 1015.4
20260507072018 10 106 9.7 20.9 0.00 0.00 0.00 84 1015.3
20260507071535 10 87 12.9 20.9 0.00 0.00 0.00 85 1015.2
20260507071016 10 111 9.7 17.7 0.00 0.00 0.00 86 1015.2
20260507070516 10 110 8.0 17.7 0.00 0.00 0.00 87 1015.1
20260507070036 10 128 9.7 17.7 0.00 0.00 0.00 87 1015.1
20260507065515 10 113 8.0 16.1 0.00 0.00 0.00 87 1015.1
20260507065015 9 39 6.4 16.1 0.00 0.00 0.00 87 1015.1
20260507064535 9 101 8.0 14.5 0.00 0.00 0.00 87 1015.1
20260507064018 9 321 6.4 14.5 0.00 0.00 0.00 87 1015.0
20260507063516 9 145 3.2 14.5 0.00 0.00 0.00 87 1015.1
20260507063042 9 326 6.4 14.5 0.00 0.00 0.00 86 1015.0
20260507062523 9 269 3.2 12.9 0.00 0.00 0.00 87 1015.0
20260507062018 9 31 6.4 17.7 0.00 0.00 0.00 87 1015.0
20260507061534 8 34 6.4 17.7 0.00 0.00 0.00 87 1015.0
20260507061018 8 219 6.4 17.7 0.00 0.00 0.00 87 1015.0
20260507060517 8 122 4.8 12.9 0.00 0.00 0.00 87 1014.9
20260507060048 8 279 4.8 11.3 0.00 0.00 0.00 87 1014.9
20260507055520 8 311 3.2 17.7 0.00 0.00 0.00 87 1014.9
20260507055017 8 314 3.2 17.7 0.00 0.00 0.00 87 1015.0
20260507054545 8 17 6.4 17.7 0.00 0.00 0.00 87 1015.0
20260507054017 8 41 8.0 16.1 0.00 0.00 0.00 87 1014.9
20260507053519 8 268 4.8 16.1 0.00 0.00 0.00 87 1015.0
20260507053034 8 136 8.0 16.1 0.00 0.00 0.00 87 1014.9
20260507052520 8 8 4.8 16.1 0.00 0.00 0.00 87 1014.9
20260507052019 8 93 9.7 14.5 0.00 0.00 0.00 87 1014.8
20260507051535 8 100 4.8 14.5 0.00 0.00 0.00 87 1014.9
20260507051017 8 260 4.8 16.1 0.00 0.00 0.00 87 1014.8
20260507050515 8 132 8.0 16.1 0.00 0.00 0.00 87 1014.9
20260507050034 8 118 8.0 16.1 0.00 0.00 0.00 87 1014.7
20260507045515 8 133 9.7 16.1 0.00 0.00 0.00 87 1014.7
20260507045016 8 309 6.4 14.5 0.00 0.00 0.00 87 1014.7
20260507044547 8 148 4.8 14.5 0.00 0.00 0.00 87 1014.7
20260507044017 8 120 6.4 16.1 0.00 0.00 0.00 87 1014.6
20260507043518 8 319 6.4 16.1 0.00 0.00 0.00 86 1014.6
20260507043032 8 114 8.0 14.5 0.00 0.00 0.00 86 1014.5
20260507042516 8 115 8.0 16.1 0.00 0.00 0.00 86 1014.5
20260507042015 8 88 6.4 19.3 0.00 0.00 0.00 85 1014.5
20260507041536 8 128 11.3 19.3 0.00 0.00 0.00 85 1014.5
20260507041018 8 111 8.0 16.1 0.00 0.00 0.00 85 1014.5
20260507040517 8 114 6.4 17.7 0.00 0.00 0.00 85 1014.4
20260507040036 8 148 9.7 17.7 0.00 0.00 0.00 85 1014.5
20260507035519 8 119 4.8 11.3 0.00 0.00 0.00 85 1014.4
20260507035019 8 43 4.8 17.7 0.00 0.00 0.00 84 1014.5
20260507034538 9 337 4.8 17.7 0.00 0.00 0.00 84 1014.4
20260507034015 9 120 8.0 16.1 0.00 0.00 0.00 84 1014.4
20260507033515 9 116 8.0 14.5 0.00 0.00 0.00 84 1014.5
20260507033035 9 108 6.4 14.5 0.00 0.00 0.00 83 1014.5
20260507032514 8 110 4.8 9.7 0.00 0.00 0.00 83 1014.5
20260507032014 9 49 4.8 9.7 0.00 0.00 0.00 83 1014.6
20260507031533 9 131 4.8 12.9 0.00 0.00 0.00 83 1014.6
20260507031017 9 334 6.4 12.9 0.00 0.00 0.00 82 1014.5
20260507030518 9 119 6.4 16.1 0.00 0.00 0.00 82 1014.6
20260507030031 9 345 4.8 16.1 0.00 0.00 0.00 82 1014.6